[[{"header":{"parameterUnit":"m.s-1","parameterCategory":1,"la1":30.2991,"la2":30.254,"lo1":-89.0895,"lo2":-89.0444,"dy":0.0017,"dx":0.0017,"nx":28,"ny":28,"refTime":"2025-05-01T09:00:00:Z","depth":0,"parameterNumber":2,"parameterNumberName":"U-component_of_WINDS"},"data":[0,0,0,0,0,0,0,0,0,0,0,0,0,0,0,0,0,0,0,0,0,0,0,0,0,0,0,0,0,0,0,0,0,0,0,0,0,0,0,0,0,0,0,0,0,0,0,0,0,0,0,0,0,0,0,0,0,0,0.0638,0.0639,0,0.0752,0.0754,0.0755,0.0807,0.0807,0.0807,0.0807,0.0921,0.0924,0.0927,0,0,0,0,0,0,0,0,0,0,0,0,0,0.0459,0.0462,0.0638,0.0639,0.0641,0.0752,0.0754,0.0755,0.0807,0.0807,0.0807,0.0807,0.092,0.0924,0.0927,0,0,0,0,0,0,0,0,0,0,0,0,0,0.0552,0.0463,0.0637,0.068,0.0685,0.0752,0.0754,0.0756,0.0807,0.0807,0.0807,0.0807,0.0919,0.0923,0.0928,0.096,0,0,0.0942,0.0944,0,0,0,0,0,0,0,0,0.0546,0.0558,0.0672,0.0677,0.0683,0.0765,0.0733,0.0824,0.0807,0.0761,0.0807,0.0807,0.0869,0.0878,0.09,0.0965,0.097,0.0943,0.0945,0.0947,0.0949,0,0,0,0,0,0,0,0.054,0.0553,0.0683,0.0674,0.068,0.0692,0.0705,0.075,0.0814,0.0765,0.0769,0.0782,0.0872,0.0895,0.0903,0.0972,0.0942,0.0947,0.095,0.0951,0.1068,0.1069,0,0,0,0,0,0,0.0527,0.0548,0.0679,0.0686,0.0613,0.0695,0.071,0.0739,0.0814,0.0825,0.0782,0.0784,0.0887,0.0897,0.0907,0.0949,0.0947,0.0952,0.0955,0.1068,0.1068,0.1069,0,0,0,0,0,0,0.0523,0.0538,0.0675,0.0618,0.0637,0.0699,0.0731,0.0741,0.0765,0.0827,0.0838,0.0794,0.0887,0.09,0.0946,0.0954,0.0954,0.0958,0.1068,0.1068,0.1069,0.1034,0,0,0,0,0,0,0.0518,0.0537,0.0551,0.0618,0.0639,0.0714,0.0731,0.0744,0.0773,0.0777,0.0841,0.0852,0.0888,0.0939,0.0951,0.096,0.0962,0.1067,0.1068,0.1068,0.1035,0.1033,0.1032,0,0,0,0,0,0.0511,0.0536,0.0551,0.0567,0.0658,0.0714,0.0726,0.0768,0.0773,0.0787,0.0827,0.085,0.0951,0.0943,0.0957,0.0968,0.1067,0.1068,0.1068,0.1035,0.1033,0.1032,0,0,0,0,0,0,0.0466,0.0545,0.0563,0.0611,0.0655,0.0723,0.0742,0.0765,0.0808,0.081,0.0859,0.0873,0.0915,0.0946,0.0936,0.1002,0.1011,0.1014,0.0981,0.098,0.0978,0.097,0.0966,0,0,0,0,0,0.0462,0.0502,0.0568,0.0603,0.0625,0.0679,0.0705,0.0734,0.0781,0.08,0.0844,0.0888,0.093,0.0956,0.0998,0.1039,0.1053,0.1053,0.1051,0.105,0.1053,0.1076,0.1076,0.1071,0.1071,0.1071,0,0,0.0453,0.0501,0.0523,0.0596,0.0634,0.0673,0.0695,0.0735,0.0764,0.0806,0.0853,0.0886,0.0938,0.0982,0.1003,0.1009,0.1057,0.1051,0.1049,0.1053,0.1076,0.1077,0.1077,0.1071,0.1071,0.1071,0,0,0.0458,0.0498,0.0532,0.057,0.0627,0.0663,0.0671,0.0735,0.0759,0.0806,0.0838,0.0872,0.0943,0.098,0.1007,0.1023,0.1046,0.1035,0.1028,0.105,0.105,0.1051,0.1057,0.1058,0.1038,0.1037,0.1037,0,0.0439,0.0501,0.0546,0.0585,0.0615,0.0656,0.0689,0.0723,0.0791,0.081,0.0816,0.0905,0.0943,0.0996,0.0999,0.102,0.103,0.1029,0.1047,0.1048,0.1049,0.1055,0.1057,0.1036,0.1036,0.1036,0.1036,0,0.0476,0.0517,0.0537,0.0603,0.0635,0.0671,0.072,0.0747,0.0772,0.0807,0.0854,0.0901,0.0953,0.0967,0.0992,0.1023,0.1024,0.1038,0.1047,0.1047,0.1054,0.1056,0.1034,0.1034,0.1035,0.1035,0,0,0.0456,0.0546,0.0552,0.0582,0.0648,0.0681,0.0717,0.0769,0.0791,0.0835,0.0867,0.0925,0.0938,0.0969,0.0998,0.1017,0.1026,0.1028,0.103,0.1026,0.1062,0.1052,0.1054,0.1041,0.1042,0.1042,0.1058,0,0.047,0.054,0.0581,0.0634,0.0672,0.071,0.0742,0.0785,0.0817,0.0854,0.0889,0.093,0.0943,0.0962,0.0983,0.1021,0.1034,0.102,0.107,0.1071,0.1057,0.1058,0.1048,0.1061,0.1061,0.1061,0.1062,0,0.0496,0.0541,0.0598,0.0658,0.0676,0.0704,0.0755,0.0789,0.0837,0.086,0.0894,0.0923,0.0961,0.0967,0.102,0.1009,0.1032,0.1053,0.1055,0.1062,0.1067,0.1065,0.1066,0.1068,0.1066,0.1066,0.1065,0,0.0477,0.0551,0.0595,0.0619,0.0691,0.0709,0.074,0.0788,0.0816,0.0859,0.0878,0.0924,0.095,0.0984,0.1024,0.1024,0.1073,0.1082,0.1092,0.1091,0.1101,0.11,0.1106,0.1114,0.1114,0.1114,0.1114,0,0.0488,0.0521,0.0587,0.0614,0.0651,0.0697,0.0732,0.0765,0.0808,0.0841,0.0875,0.0905,0.0955,0.099,0.1021,0.1061,0.1072,0.109,0.1098,0.1087,0.1085,0.1103,0.1104,0.1115,0.1115,0.1115,0.1114,0,0.0473,0.0519,0.0569,0.0632,0.0649,0.0674,0.0728,0.0754,0.0788,0.0829,0.0841,0.0894,0.0937,0.098,0.1038,0.1058,0.1097,0.1107,0.1081,0.1086,0.1093,0.1092,0.1111,0.1116,0.112,0.112,0.112,0,0.0478,0.0505,0.0572,0.0597,0.0627,0.0667,0.0696,0.0741,0.0769,0.0826,0.0845,0.0891,0.093,0.0997,0.1039,0.1083,0.1095,0.1099,0.1102,0.109,0.1096,0.1094,0.1096,0.1098,0.1098,0.1097,0.1097,0,0.0482,0.0503,0.0545,0.0593,0.0627,0.0668,0.0709,0.0727,0.0779,0.0809,0.0855,0.0885,0.0944,0.0989,0.1037,0.1067,0.109,0.1096,0.11,0.109,0.1074,0.1083,0.1078,0.1095,0.1095,0.1096,0.1096,0.1096,0.0478,0.0503,0.0554,0.0599,0.0634,0.0672,0.07,0.0738,0.0777,0.0829,0.0853,0.0898,0.0944,0.1012,0.1041,0.1076,0.1082,0.1089,0.109,0.1092,0.1089,0.1068,0.1085,0.1085,0.1085,0.1085,0.1085,0,0.0484,0.0518,0.0559,0.0616,0.0651,0.067,0.0717,0.0744,0.0784,0.0825,0.0863,0.0914,0.0958,0.1003,0.1048,0.1067,0.1079,0.1078,0.1077,0.1084,0.1081,0.1073,0.1068,0.1068,0.1068,0.1068,0.1068,0.1068,0.0491,0.0535,0.0561,0.0622,0.0656,0.0702,0.0727,0.0761,0.0795,0.0851,0.0887,0.0917,0.0959,0.1008,0.1048,0.106,0.1075,0.1071,0.1085,0.1083,0.1084,0.1085,0.1077,0.1073,0.1073,0.1085,0.1085,0.1085]},{"header":{"parameterUnit":"m.s-1","parameterCategory":1,"la1":30.2991,"la2":30.254,"lo1":-89.0895,"lo2":-89.0444,"dy":0.0017,"dx":0.0017,"nx":28,"ny":28,"refTime":"2025-05-01T09:00:00:Z","depth":0,"parameterNumber":3,"parameterNumberName":"V-component_of_WINDS"},"data":[0,0,0,0,0,0,0,0,0,0,0,0,0,0,0,0,0,0,0,0,0,0,0,0,0,0,0,0,0,0,0,0,0,0,0,0,0,0,0,0,0,0,0,0,0,0,0,0,0,0,0,0,0,0,0,0,0,0,5.7545,5.7545,0,5.7533,5.7533,5.7533,5.7488,5.7487,5.7486,5.7485,5.7473,5.7474,5.7474,0,0,0,0,0,0,0,0,0,0,0,0,0,5.753,5.753,5.7545,5.7545,5.7545,5.7533,5.7533,5.7533,5.7488,5.7487,5.7486,5.7484,5.7473,5.7474,5.7474,0,0,0,0,0,0,0,0,0,0,0,0,0,5.7529,5.7531,5.7545,5.7521,5.7519,5.7533,5.7533,5.7533,5.7488,5.7487,5.7485,5.7484,5.7473,5.7474,5.7475,5.7512,0,0,5.7478,5.7478,0,0,0,0,0,0,0,0,5.7529,5.753,5.7525,5.7523,5.752,5.751,5.7523,5.7526,5.7489,5.75,5.7485,5.7483,5.7487,5.7487,5.7488,5.7511,5.7511,5.7478,5.7478,5.7479,5.7479,0,0,0,0,0,0,0,5.7529,5.753,5.754,5.7525,5.7522,5.7511,5.7509,5.7524,5.7502,5.7499,5.7496,5.7495,5.7485,5.7487,5.7487,5.751,5.7478,5.7478,5.7479,5.7479,5.7564,5.7565,0,0,0,0,0,0,5.7533,5.753,5.7541,5.754,5.7521,5.7513,5.7511,5.7515,5.7502,5.7498,5.7496,5.7493,5.7486,5.7486,5.7487,5.7529,5.7479,5.748,5.748,5.7562,5.7564,5.7566,0,0,0,0,0,0,5.7533,5.7534,5.7541,5.7534,5.7534,5.7515,5.752,5.7516,5.7517,5.75,5.7496,5.7502,5.7485,5.7485,5.7506,5.7528,5.748,5.7481,5.756,5.7563,5.7565,5.7614,0,0,0,0,0,0,5.7532,5.7534,5.7548,5.7535,5.7535,5.7561,5.7521,5.7517,5.7519,5.7514,5.7504,5.7501,5.7484,5.7505,5.7507,5.7528,5.7482,5.7558,5.7561,5.7564,5.761,5.7618,5.7625,0,0,0,0,0,5.7532,5.7562,5.7549,5.755,5.7552,5.7562,5.7562,5.7541,5.7521,5.7535,5.7524,5.7501,5.7525,5.7507,5.7509,5.7531,5.7557,5.756,5.7564,5.7607,5.7617,5.7624,0,0,0,0,0,0,5.7578,5.756,5.7545,5.7572,5.7569,5.7554,5.7571,5.7552,5.7555,5.755,5.7525,5.7523,5.7547,5.7541,5.7521,5.7567,5.7537,5.7542,5.7569,5.7578,5.7585,5.7586,5.7482,0,0,0,0,0,5.7591,5.7601,5.7585,5.761,5.761,5.7591,5.7594,5.7579,5.7575,5.7573,5.7564,5.7561,5.7568,5.7573,5.7578,5.761,5.7607,5.7626,5.7633,5.7639,5.7643,5.766,5.7668,5.7578,5.7578,5.7578,0,0,5.7619,5.761,5.7618,5.7619,5.7615,5.7626,5.759,5.7603,5.7611,5.7575,5.7594,5.7587,5.7582,5.7609,5.762,5.7604,5.7667,5.7644,5.7649,5.7649,5.7664,5.7673,5.768,5.7581,5.758,5.758,0,0,5.7674,5.7669,5.769,5.7686,5.768,5.7668,5.7673,5.7662,5.7656,5.7674,5.7648,5.7657,5.767,5.7667,5.7668,5.7724,5.7703,5.7726,5.7762,5.7779,5.7786,5.7792,5.7812,5.7819,5.773,5.773,5.773,0,5.7709,5.7724,5.7703,5.7717,5.7719,5.7688,5.7709,5.7706,5.7703,5.7705,5.7688,5.7703,5.7698,5.7723,5.7737,5.7738,5.7744,5.7727,5.7787,5.7793,5.7798,5.7817,5.7824,5.7733,5.7733,5.7733,5.7732,0,5.7768,5.7779,5.7796,5.7793,5.7797,5.7815,5.7796,5.7802,5.7787,5.7777,5.7796,5.7788,5.7792,5.7797,5.7782,5.7821,5.7811,5.7791,5.7761,5.781,5.7827,5.7834,5.7737,5.7736,5.7735,5.7735,0,0,5.7851,5.7836,5.7843,5.7842,5.7834,5.7842,5.7859,5.7862,5.7868,5.7867,5.788,5.7892,5.7874,5.7874,5.7859,5.7874,5.7918,5.7851,5.7851,5.7864,5.796,5.7975,5.7984,5.7905,5.7906,5.7907,5.7961,0,5.7903,5.793,5.7912,5.7942,5.7952,5.7924,5.7938,5.7935,5.7926,5.7934,5.7923,5.7932,5.7907,5.7907,5.792,5.791,5.7937,5.7906,5.7917,5.7918,5.7919,5.7993,5.8008,5.8059,5.7967,5.7968,5.7969,0,5.7968,5.797,5.8001,5.7992,5.7995,5.8009,5.8011,5.8018,5.8014,5.8007,5.8008,5.7989,5.8005,5.7976,5.7998,5.7978,5.7981,5.7977,5.7979,5.7978,5.7946,5.7994,5.8075,5.8082,5.7979,5.7979,5.7978,0,5.8025,5.8036,5.8056,5.8056,5.8045,5.8055,5.8051,5.8046,5.8049,5.8051,5.8053,5.8057,5.8059,5.8063,5.8046,5.8027,5.807,5.804,5.8065,5.8065,5.8074,5.8074,5.8156,5.8078,5.8078,5.8078,5.8077,0,5.8085,5.8106,5.8081,5.8094,5.8116,5.8095,5.8118,5.8111,5.8106,5.8117,5.8093,5.8104,5.8081,5.809,5.8077,5.8097,5.8098,5.8092,5.8089,5.8094,5.8095,5.8096,5.8092,5.808,5.8079,5.8079,5.8078,0,5.8152,5.8137,5.8157,5.8146,5.8143,5.816,5.8151,5.8162,5.8151,5.8166,5.8168,5.8152,5.816,5.8144,5.8151,5.8142,5.8171,5.8162,5.8172,5.8169,5.8194,5.8192,5.828,5.829,5.8206,5.8206,5.8207,0,5.8191,5.8206,5.8197,5.8202,5.82,5.8209,5.8213,5.8193,5.8198,5.8195,5.8207,5.8214,5.8218,5.8234,5.8223,5.8228,5.8219,5.8249,5.8219,5.8225,5.8219,5.8218,5.8219,5.8255,5.8256,5.8257,5.8257,0,5.8262,5.8254,5.826,5.8264,5.8269,5.8271,5.8271,5.8277,5.8256,5.8263,5.8272,5.8275,5.8283,5.829,5.8293,5.8289,5.827,5.8267,5.8273,5.8279,5.8284,5.8281,5.8188,5.8265,5.8264,5.8264,5.8263,5.8263,5.8316,5.8329,5.8324,5.8332,5.833,5.8331,5.8341,5.8332,5.8339,5.8343,5.8332,5.8343,5.834,5.8342,5.834,5.8349,5.8336,5.8344,5.8346,5.8349,5.8353,5.8283,5.835,5.8349,5.8349,5.8349,5.8349,0,5.8386,5.8382,5.8389,5.839,5.8397,5.8379,5.8378,5.8385,5.8395,5.8394,5.8399,5.8409,5.8417,5.8407,5.8412,5.8421,5.8413,5.8423,5.8422,5.8422,5.8365,5.8359,5.843,5.843,5.843,5.843,5.843,5.843,5.8423,5.8443,5.8434,5.8453,5.8449,5.846,5.8462,5.8463,5.8461,5.8474,5.848,5.8473,5.8469,5.8474,5.848,5.8477,5.848,5.8493,5.8487,5.8434,5.8426,5.8418,5.8413,5.8494,5.8494,5.8544,5.8544,5.8544]}]]